Location: Augustenthal
(51.7167°N, 10.2833°E)
Time: 03:26:30
(UTC+00:00)

Resurs 01 Rocket - Pass Details

Date: 18 May 2021
Orbit: 633 x 645 km, 97.9° (Epoch: 14 June)

Event Time Altitude Azimuth Distance (km) Brightness Sun altitude
Rises 21:08:40 0° 212° (SSW) 2,941 4.8 -13.4°
Reaches altitude 10° 21:11:42 10° 235° (SW) 2,036 4.2 -13.6°
Maximum altitude 21:14:22 16° 272° (W) 1,698 4.2 -13.8°
Drops below altitude 10° 21:17:02 10° 309° (NW) 2,042 5.3 -14.0°
Sets 21:20:06 0° 332° (NNW) 2,955 7.1 -14.2°
